Вернуться в каталог

COSMOS 2251 DEB

АктивенVLEO
NORAD 37518·DEBRIS·🇷🇺 Russia

Запущен Jun 16, 1993 с Plesetsk Cosmodrome

Loading…

Ближайшие Пролёты (ближайшие 24 часа)

TLE

УстаревшееSource: Space-Track

Эпоха: Sep 7, 2026, 07:02 UTC

1 37518U 93036BMX 26250.29343112  .00137269  00000-0  27957-2 0  9995
2 37518  73.9600  98.3033 0019485 157.8491 202.3566 15.45465203699989

Отслеживайте COSMOS 2251 DEB в реальном времени с AllMySat

Download on the App Store